Location: Gunung Kajang
(2.4167°N, 113.7167°E)
Time: 16:29:23
(UTC+00:00)

ARIANE 5 R/B - Pass Details

Date: 29 May 2022
Orbit: 747 x 795 km, 98.7° (Epoch: 28 June)

Event Time Altitude Azimuth Distance (km) Brightness Sun altitude
Rises 20:09:58 0° 358° (N) 3,180 6.0 -29.5°
Reaches altitude 10° 20:12:22 10° 350° (N) 2,256 5.1 -28.9°
Enters shadow 20:14:02 20° 340° (NNW) 1,678 4.3 -28.6°
